Wind_Speed
19 19 21 22 23 24 23 23 22 23 23 24 24 23 23 23 22 22 23 23 23 23 23 23 24 24 24 25 26 26 24 22 20 18 17 16 14 13 12 11 10 10 9 9 8 7 7 6 6 6 7 6 5 5 6 6 6 6 6 5 5 5 6 6 6 7 7 8 8
19 19 21 22 23 23 23 22 22 22 23 23 24 24 24 23 23 23 23 23 24 24 23 23 24 24 24 26 26 25 24 22 20 18 17 16 15 13 12 11 10 10 9 9 8 7 7 6 6 6 6 6 5 5 5 6 6 6 6 6 6 6 6 6 6 7 7 8 8
19 19 19 21 22 23 23 22 22 22 23 23 24 24 24 24 23 23 23 23 24 23 23 23 24 24 25 26 26 25 24 22 20 19 17 16 15 14 13 11 11 10 9 9 8 7 7 6 6 6 6 6 5 5 5 5 6 6 6 6 6 6 6 6 6 7 7 7 7
18 18 18 20 21 22 23 22 22 22 23 23 24 23 23 22 22 23 23 23 23 23 24 24 24 25 26 26 26 25 23 22 20 19 18 16 15 14 13 12 11 10 10 9 8 7 7 6 6 7 7 6 5 5 5 6 6 6 7 7 6 6 6 7 7 7 7 7 7
18 17 18 19 20 21 22 22 22 22 23 23 23 23 22 21 21 22 23 22 23 23 25 25 25 25 26 26 26 25 23 22 20 19 18 17 15 14 13 12 11 11 10 9 8 8 7 7 7 7 7 7 6 7 7 6 6 7 7 7 7 7 8 8 7 7 7 7 8
17 17 17 18 19 20 21 21 22 22 22 23 23 23 22 22 22 23 23 23 23 24 25 25 25 26 26 26 25 25 23 22 21 19 18 17 16 14 13 12 11 11 10 9 9 8 7 7 8 8 8 7 7 8 8 7 7 8 8 7 7 8 8 8 8 8 8 8 8
16 16 17 18 19 20 21 21 21 21 22 23 23 23 23 23 23 24 24 24 24 24 24 25 26 26 26 26 26 25 24 23 21 20 18 17 16 15 13 12 11 11 10 10 9 8 8 8 8 8 8 8 8 8 8 8 9 9 8 8 8 8 8 9 9 9 9 9 9
16 16 17 18 19 20 21 21 20 20 21 23 24 24 24 24 24 24 24 24 24 25 25 26 27 27 27 27 26 25 24 23 21 20 18 17 16 15 13 12 11 11 10 10 9 8 8 8 8 9 9 9 8 8 8 9 9 9 9 9 9 8 8 9 10 10 10 10 10
17 17 17 18 19 20 21 22 21 21 21 23 24 24 24 24 24 24 24 24 25 26 26 27 27 27 27 27 26 26 24 23 22 20 19 18 16 15 14 13 12 11 11 10 9 9 9 9 9 9 9 9 9 9 9 9 10 10 10 10 10 9 9 10 10 11 11 11 11
18 18 18 19 20 21 22 22 22 22 22 23 24 24 24 24 24 24 24 25 25 26 27 28 28 28 27 27 26 25 24 23 22 20 19 18 16 15 14 13 12 11 11 11 10 9 9 9 9 9 9 9 9 9 10 10 10 11 11 11 11 10 10 11 11 11 11 12 12
19 19 20 20 21 22 22 23 23 23 23 23 23 23 23 24 24 24 25 25 26 27 28 28 28 28 27 27 26 25 24 23 22 20 19 18 16 15 14 13 12 12 11 11 10 10 10 10 10 10 10 10 10 10 10 11 11 11 12 12 12 12 12 12 12 12 12 13 14
20 20 21 22 23 23 24 24 24 24 23 23 22 22 23 24 24 25 25 26 27 27 28 29 29 28 28 27 26 25 24 23 22 20 19 18 17 15 15 14 12 12 11 11 11 11 11 11 11 10 10 10 10 10 11 11 12 12 13 13 13 13 13 13 13 14 14 15 15
20 21 22 23 24 25 25 25 25 24 24 23 22 22 23 23 24 25 26 27 27 28 28 29 29 28 28 27 26 25 24 23 21 20 19 18 17 16 15 14 13 12 12 12 12 12 11 11 11 11 10 10 11 11 11 12 12 13 13 14 14 14 15 15 15 15 16 16 16
20 22 23 24 25 25 26 26 25 25 24 23 23 23 23 23 24 25 26 27 27 28 28 29 28 28 27 27 26 25 24 23 21 20 19 18 17 16 15 14 14 13 13 13 13 12 12 11 11 11 11 11 11 12 12 12 12 13 14 15 16 16 17 16 16 16 16 17 17
20 22 24 24 25 26 26 26 25 24 24 23 23 23 22 22 24 25 26 27 28 28 29 29 28 27 27 26 25 24 23 22 21 20 19 18 17 16 16 15 14 13 13 13 13 13 12 11 11 11 11 11 12 12 13 13 13 14 15 16 17 17 18 18 17 17 18 18 18
20 22 23 24 25 26 26 26 25 23 23 23 23 22 22 22 24 25 26 27 27 28 28 28 28 27 26 25 24 24 23 22 21 20 19 18 17 17 16 15 15 14 13 13 13 13 12 11 11 11 11 12 12 13 13 14 15 15 16 17 18 18 19 19 19 19 19 19 20
21 22 23 24 25 25 25 25 23 22 22 22 22 22 23 23 24 25 26 27 27 27 27 28 27 27 26 25 24 24 23 22 21 20 19 19 18 17 17 16 15 14 13 13 13 12 12 11 11 11 11 12 13 13 14 15 16 16 17 18 19 19 20 20 20 20 20 21 21
21 22 22 23 24 24 24 23 22 21 21 21 22 23 24 25 25 26 27 27 28 27 27 27 27 27 26 26 25 24 23 22 21 20 20 19 18 17 17 16 14 13 13 12 12 12 11 11 10 11 11 12 13 14 14 15 16 17 18 19 19 20 20 21 21 21 22 22 23
20 21 21 22 22 23 23 22 22 21 22 22 23 25 26 26 27 27 28 28 28 28 28 27 27 27 27 26 26 25 24 23 22 21 20 19 18 17 16 15 14 13 13 12 11 11 11 10 10 11 11 12 13 14 15 15 16 17 18 19 19 20 21 22 22 23 23 24 24
20 20 21 22 22 23 23 23 22 22 23 24 25 26 27 28 28 28 28 28 29 28 28 27 27 27 27 27 26 25 24 23 22 21 20 19 18 17 16 15 14 13 12 12 11 10 10 10 10 11 11 12 13 14 15 16 16 17 18 19 20 21 21 22 23 24 25 25 25
20 20 21 22 23 23 24 24 23 23 23 24 26 27 28 28 29 29 29 29 29 28 28 28 27 27 27 27 26 25 24 23 22 21 20 19 18 17 16 15 14 13 12 11 11 10 10 10 10 11 11 12 13 14 15 16 17 18 19 19 20 21 22 22 23 24 25 25 25
20 21 22 22 23 24 24 23 23 23 24 24 26 27 28 29 29 29 29 29 29 28 27 27 27 27 27 27 26 25 24 23 22 21 19 18 17 16 15 15 14 13 12 11 11 10 10 10 10 10 11 12 14 14 16 17 18 18 19 20 20 21 22 22 23 23 23 24 24
19 19 21 22 22 23 23 22 22 23 23 24 25 27 28 28 29 29 29 28 28 27 27 26 26 26 26 26 26 25 24 22 21 20 19 18 17 16 15 14 14 13 12 11 11 10 10 10 10 11 12 13 14 15 16 17 18 19 20 21 21 22 22 23 23 23 23 23 23
17 18 19 20 21 21 21 22 22 23 23 24 25 26 27 28 28 28 27 27 27 26 26 25 25 25 25 25 25 24 23 22 21 19 18 17 16 15 15 14 14 13 12 11 10 10 10 10 11 11 12 13 15 16 17 18 19 20 20 21 22 22 23 23 24 24 23 23 23
16 17 18 19 20 20 21 21 22 23 23 24 25 26 26 27 27 26 26 26 26 25 24 23 24 24 24 24 24 23 22 21 20 19 18 17 16 15 15 14 14 13 12 11 10 10 10 11 12 13 14 15 16 17 18 19 19 19 20 20 21 22 22 23 23 23 23 23 24
15 16 17 18 19 19 20 21 22 22 23 23 24 25 26 26 26 25 25 25 24 24 23 22 22 23 23 23 23 22 21 20 19 18 17 16 16 15 15 14 14 13 12 11 11 10 11 12 13 14 15 16 17 17 18 19 19 20 20 21 21 21 22 22 22 22 22 22 23
14 15 16 17 18 18 19 20 21 21 22 22 24 25 25 25 25 24 24 24 23 23 22 22 22 22 23 23 22 21 20 19 19 18 17 16 16 15 15 15 14 13 13 11 11 11 12 13 15 16 17 17 18 18 18 19 19 20 20 21 21 22 22 22 22 22 22 22 23
13 14 15 16 16 17 18 19 19 20 21 21 23 24 24 24 24 24 23 23 22 22 22 22 22 22 22 22 22 21 20 19 18 17 17 16 15 15 15 15 14 14 13 12 12 13 14 15 16 17 18 18 19 19 19 19 19 19 19 19 20 20 21 22 22 22 22 22 23
13 13 14 15 16 16 17 17 18 19 19 20 21 22 22 23 23 23 23 22 22 22 22 22 22 22 21 21 21 21 20 19 18 17 16 16 15 15 15 15 15 14 13 13 14 15 16 17 18 19 19 20 20 20 20 20 20 19 18 18 19 19 20 21 21 21 22 22 22
12 13 13 14 15 15 16 16 17 17 17 18 19 20 21 21 22 22 22 22 22 22 23 22 22 22 21 21 20 20 19 19 18 17 16 16 16 16 15 15 15 14 14 14 16 17 18 19 20 20 21 21 21 22 22 22 22 21 21 20 20 21 21 22 22 22 22 22 22
11 11 12 13 13 14 15 15 16 16 16 16 17 18 19 20 20 21 21 21 22 22 22 22 22 21 21 20 19 19 18 18 17 17 16 16 16 16 16 16 15 15 15 16 18 19 20 21 21 22 22 22 22 23 23 24 24 24 23 23 23 23 23 23 24 24 24 24 24
10 10 11 12 12 13 14 14 15 15 15 16 17 17 18 19 20 20 20 20 21 21 20 20 20 20 19 18 18 18 18 17 17 17 16 16 16 16 16 16 16 17 17 18 20 21 21 22 22 22 22 23 23 23 24 25 25 25 25 25 25 26 25 25 25 25 25 25 25
10 10 10 11 12 12 13 13 14 15 15 16 16 17 18 18 19 19 18 19 19 19 19 19 19 19 18 17 17 17 17 17 17 16 16 16 16 16 17 17 18 19 20 21 21 22 22 22 22 23 23 24 24 24 25 25 25 25 25 25 26 26 27 27 27 27 27 26 26
10 10 10 11 11 12 12 13 14 15 15 16 16 17 17 18 18 18 17 17 18 18 18 18 18 18 17 17 16 16 16 16 16 15 15 16 16 17 17 18 20 21 22 22 22 22 22 22 23 24 24 24 24 24 24 25 25 25 25 26 26 27 27 27 28 28 27 27 27
10 9 10 10 11 11 12 13 14 14 15 15 16 16 16 17 17 17 17 16 16 16 16 16 16 16 16 16 16 16 15 15 15 15 15 16 16 17 18 20 21 22 22 22 22 22 23 23 24 24 25 24 24 24 24 24 25 25 26 26 27 27 28 28 28 28 28 28 28
9 9 10 10 10 11 11 12 13 14 15 15 15 15 15 16 16 16 16 16 16 15 15 14 14 14 14 15 15 15 15 15 15 15 16 16 17 18 19 20 21 22 22 22 22 23 23 24 25 25 25 24 24 24 23 23 23 24 25 26 27 27 27 28 28 28 28 28 28
9 9 9 9 10 10 11 12 13 13 14 14 14 14 14 14 14 14 15 15 15 14 14 14 14 14 14 14 15 15 15 15 16 16 17 17 18 18 19 20 21 21 21 21 22 22 23 24 24 24 24 24 24 24 23 23 23 23 24 25 26 26 26 26 26 26 26 27 27
8 8 8 9 9 10 10 11 12 13 13 13 13 13 13 13 13 13 14 15 14 13 13 13 13 13 14 14 14 14 15 15 16 17 18 18 19 19 19 20 21 21 21 21 22 22 23 23 24 24 24 24 24 24 23 23 23 23 24 24 25 25 25 24 24 24 25 25 26
7 7 8 8 8 9 10 11 11 12 12 12 12 12 12 12 12 12 13 14 13 13 12 12 12 12 12 13 13 14 15 16 16 17 18 19 19 19 19 20 21 22 22 22 22 23 23 24 24 24 24 24 24 24 23 23 23 24 24 24 24 25 24 24 24 24 24 24 25
6 6 7 7 8 8 9 10 10 11 11 11 12 11 11 11 11 11 13 13 12 12 11 11 10 11 11 11 12 13 14 16 17 17 18 18 19 19 20 20 21 22 22 23 23 23 24 25 25 25 25 24 24 23 23 23 23 24 24 24 24 24 24 24 24 23 24 24 24
5 5 6 6 7 7 8 8 9 10 10 11 11 10 10 10 10 11 11 11 11 10 9 9 9 9 10 11 12 13 14 16 17 17 17 18 18 19 19 20 20 21 22 22 22 23 23 24 24 24 24 23 23 22 21 21 22 23 23 23 23 23 23 23 23 23 23 23 23
Wind_Direction
191 192 193 192 191 192 193 195 196 196 196 194 192 192 193 193 193 195 198 200 201 203 204 205 205 205 206 207 208 208 209 210 211 212 212 214 216 219 222 227 235 241 246 251 257 262 266 268 268 268 268 266 259 249 242 243 247 249 250 247 246 248 250 252 254 257 259 261 261
190 192 193 192 191 192 192 194 195 195 195 195 194 194 194 194 195 197 199 202 203 204 205 205 206 206 206 207 208 208 208 209 209 210 211 213 216 219 223 228 234 240 245 249 253 258 261 264 262 260 262 264 264 254 246 247 250 249 247 244 244 246 248 250 253 257 260 262 262
189 189 190 190 190 191 191 192 193 193 193 194 194 195 195 196 197 198 200 202 204 204 204 204 204 205 206 207 208 208 208 208 208 209 210 212 215 218 222 227 233 238 242 246 250 254 258 258 255 253 254 258 259 252 242 242 246 246 243 242 242 243 246 249 252 256 258 259 260
188 187 188 189 190 191 192 193 193 192 192 193 194 195 196 196 198 199 201 202 202 203 203 203 203 204 206 206 207 207 207 207 208 208 210 212 215 218 222 226 231 236 241 245 248 251 253 251 248 245 246 247 245 239 233 232 236 240 242 243 241 241 243 248 251 254 255 256 256
189 188 188 190 191 193 194 195 193 193 193 194 194 194 195 196 197 199 200 200 200 202 204 204 204 204 205 206 205 205 205 206 207 208 210 212 214 217 221 225 230 235 239 244 246 247 245 242 241 241 242 241 234 229 228 231 232 236 240 243 244 245 245 247 250 251 252 253 255
189 188 189 190 191 193 194 195 195 194 195 196 196 195 196 197 198 199 200 200 202 203 204 204 204 204 204 204 204 204 204 204 206 207 209 211 214 216 219 223 229 234 238 242 244 244 240 234 234 237 240 239 235 233 233 232 232 234 238 242 244 247 249 249 249 250 251 253 254
189 188 189 190 191 193 195 196 195 196 198 198 198 198 198 199 200 201 202 203 203 203 203 203 203 203 203 202 202 202 203 204 205 207 209 210 213 216 219 222 227 231 236 239 241 240 238 234 231 233 238 239 238 238 237 235 233 234 238 242 242 245 247 247 248 250 252 254 255
190 190 190 191 192 194 197 197 195 196 199 201 201 201 202 203 203 204 204 204 203 203 202 202 202 203 203 202 201 202 203 204 205 206 207 209 212 215 218 221 225 228 232 236 237 237 236 234 232 232 235 237 239 239 239 238 236 237 240 242 244 245 245 247 250 252 255 256 256
192 193 193 193 194 197 199 199 198 199 201 204 204 205 205 206 206 206 205 204 204 204 203 201 202 203 203 202 202 202 203 204 205 205 206 208 211 214 218 221 223 226 229 232 233 233 233 232 232 233 234 236 239 240 240 239 240 242 244 246 247 246 245 247 250 253 256 257 257
193 195 196 196 197 200 201 201 202 203 205 207 208 208 208 209 209 207 206 205 204 203 202 201 201 201 201 201 201 202 203 204 205 205 206 208 211 214 218 220 223 224 226 228 229 228 228 230 232 234 236 238 240 241 241 241 243 244 247 249 250 249 248 247 248 250 253 255 256
196 198 199 200 202 203 203 203 204 205 207 208 209 209 209 210 209 207 206 205 203 202 201 201 201 200 200 201 201 203 204 204 205 205 206 208 211 214 218 221 222 224 225 226 226 224 224 227 231 234 237 240 241 242 243 244 245 247 249 252 253 253 252 250 249 249 251 253 256
199 201 203 205 206 206 206 205 205 206 207 208 209 209 208 209 208 205 204 203 202 201 201 202 201 200 200 201 202 203 204 204 204 204 205 207 210 214 217 220 221 221 222 224 225 224 225 227 231 234 237 239 240 242 244 245 247 248 250 253 255 254 253 253 253 252 253 255 258
202 204 206 207 208 208 207 207 207 206 207 207 207 207 207 206 205 203 201 201 200 200 200 201 201 201 201 201 202 202 203 203 203 204 205 207 210 213 216 218 219 218 219 221 225 227 228 231 234 235 236 237 238 240 243 246 248 249 250 252 253 254 254 256 257 258 258 259 260
204 205 207 208 208 208 208 207 207 207 206 206 206 205 204 202 200 199 199 199 199 199 199 200 200 200 201 201 202 202 202 202 202 203 205 207 210 213 215 217 218 217 217 220 225 229 231 234 237 238 239 237 238 238 241 244 247 250 252 253 254 255 257 260 261 262 262 262 262
204 206 208 208 208 208 207 206 206 206 205 204 204 202 200 197 196 196 197 197 198 199 199 199 198 199 200 202 202 202 202 202 202 203 204 207 210 212 214 216 218 218 219 222 226 230 234 237 239 241 242 241 241 240 241 243 246 250 253 256 257 259 261 263 264 264 264 263 263
204 206 208 208 208 208 207 206 205 204 203 202 200 198 195 193 193 194 195 196 197 198 199 198 198 198 199 201 202 202 201 201 202 202 203 206 209 212 214 217 218 219 221 223 227 232 237 240 242 244 245 245 245 245 244 245 247 250 254 257 260 262 264 265 266 266 266 266 265
204 206 207 207 207 207 206 204 203 202 200 198 196 194 192 192 193 194 195 196 197 198 199 199 199 199 199 200 200 201 201 201 201 202 204 206 209 212 215 218 220 221 222 225 229 233 238 243 245 247 249 249 250 250 251 251 252 254 256 259 261 264 266 268 269 269 269 268 266
205 206 207 207 206 206 204 202 201 199 198 196 195 195 195 196 196 196 197 198 200 200 201 201 201 201 201 200 200 200 200 201 202 203 206 208 211 214 216 220 221 222 224 227 231 235 240 245 248 250 252 254 256 258 259 259 260 260 261 263 265 267 269 271 272 272 271 269 268
205 206 206 206 206 205 204 202 201 201 200 200 200 200 200 200 199 199 199 200 202 204 203 202 202 203 203 202 201 202 202 202 203 205 207 210 213 215 218 221 222 223 225 228 232 237 242 247 251 253 255 258 261 264 266 267 267 268 268 269 270 272 273 275 275 275 273 271 270
207 207 208 208 207 207 206 205 205 205 205 205 205 204 203 202 202 201 201 202 204 205 205 204 203 203 203 203 202 203 203 204 205 206 208 211 213 215 218 221 223 225 227 229 233 237 241 246 250 253 257 261 264 267 270 272 273 273 274 275 275 277 278 278 278 276 274 273 271
209 210 211 211 210 209 209 208 208 208 207 207 206 205 204 203 203 203 204 205 205 205 205 205 205 204 203 203 203 203 204 206 206 207 209 212 213 216 219 222 225 227 229 231 234 237 241 245 249 253 257 261 264 268 271 273 274 275 277 277 278 279 280 280 279 277 276 274 272
211 212 213 212 212 211 210 209 208 208 207 207 206 206 205 204 204 205 206 206 205 204 204 204 205 205 204 204 204 204 205 207 208 209 210 212 214 216 219 222 226 229 231 232 235 238 243 247 251 256 260 263 265 268 270 271 272 273 275 276 277 278 278 277 276 275 274 273 271
212 212 213 213 212 211 210 208 207 206 206 206 206 205 205 205 205 205 205 205 204 203 203 204 204 205 205 206 206 206 206 207 208 209 211 213 214 216 219 222 226 230 232 234 237 241 245 251 256 261 264 266 267 268 269 270 271 272 274 276 277 277 276 274 272 271 269 268 267
212 212 213 213 212 210 209 207 205 205 205 205 205 205 204 204 204 204 203 203 203 202 202 202 203 204 205 206 207 207 207 207 208 209 211 213 214 216 219 223 228 231 234 237 241 245 250 257 262 265 267 268 268 268 268 269 271 274 276 277 278 277 276 275 274 271 268 266 264
213 213 213 212 211 209 207 206 204 204 203 204 204 204 204 203 203 202 202 201 201 201 200 200 201 203 204 206 207 208 209 209 209 209 210 212 215 217 220 225 230 234 238 241 244 249 257 264 268 269 270 269 269 269 270 272 275 277 278 278 278 277 277 276 276 273 270 267 265
213 213 212 211 210 208 206 205 204 203 203 203 203 203 202 201 201 201 200 200 200 199 199 199 201 202 204 205 206 207 209 210 211 211 212 213 215 219 223 227 233 238 242 245 249 255 262 267 270 271 270 269 269 270 272 275 277 278 278 278 277 275 274 274 274 272 271 268 266
211 211 211 210 208 206 205 205 204 203 202 202 201 201 201 200 200 199 199 198 198 197 197 198 200 202 204 205 206 207 208 210 212 213 214 215 217 220 225 231 237 244 249 253 258 262 266 268 269 270 269 267 266 267 268 270 272 273 274 274 273 272 271 270 270 270 269 268 267
208 209 208 208 207 206 205 204 203 202 202 201 201 200 200 199 198 197 197 197 196 195 196 197 200 202 204 205 206 208 210 211 213 214 216 217 220 224 229 235 242 250 257 264 269 270 271 271 270 269 268 265 263 262 263 264 265 266 266 266 266 265 264 264 265 266 266 267 266
206 207 207 206 206 205 205 204 203 203 202 201 201 200 199 198 197 196 195 195 194 194 195 197 200 202 203 205 208 210 212 213 215 216 218 220 223 228 233 239 247 255 263 271 275 275 275 275 274 272 269 265 261 260 260 261 262 263 262 262 261 261 261 260 261 262 263 264 265
205 205 205 206 205 205 205 204 204 203 202 201 200 199 198 197 197 196 195 194 194 196 197 199 201 202 203 206 209 211 213 215 218 219 221 223 227 232 238 244 251 259 267 272 275 275 276 276 275 273 270 266 262 260 260 261 262 264 265 264 262 262 262 262 262 263 263 264 264
204 203 204 205 205 205 206 205 204 203 201 200 199 199 198 198 197 196 196 195 196 198 200 201 202 203 204 207 210 212 214 217 220 222 225 229 233 238 244 250 257 263 269 272 273 274 275 275 274 273 271 268 264 262 262 262 262 264 264 264 263 262 262 263 263 264 264 264 264
204 204 204 205 206 206 207 205 204 202 201 200 200 199 199 199 199 198 197 197 197 197 198 200 203 203 204 206 209 213 216 219 222 226 230 235 240 246 251 257 262 268 271 273 274 274 274 274 273 272 271 269 266 264 263 264 264 263 264 264 263 262 262 262 262 262 263 263 263
206 206 206 207 208 208 207 206 204 203 202 201 201 200 200 199 199 198 197 196 196 196 197 200 203 203 203 205 209 214 219 223 227 232 237 242 247 253 258 262 266 270 272 273 274 274 274 274 274 274 274 273 270 267 266 266 266 265 264 264 263 263 261 261 261 261 261 261 262
208 209 209 209 209 209 208 206 204 204 203 203 202 201 199 199 197 196 195 195 196 197 198 200 202 203 205 207 211 216 222 227 233 238 243 248 253 258 261 264 267 270 272 273 273 273 274 275 276 277 277 275 272 269 268 268 268 267 265 265 265 265 263 262 261 261 261 261 262
209 211 211 211 210 209 208 206 205 204 203 202 202 200 199 198 197 196 194 194 194 195 196 198 201 203 206 210 215 220 226 231 237 243 248 253 257 260 262 265 268 270 272 272 272 274 275 277 278 279 279 277 273 271 269 268 268 267 267 267 268 267 266 265 264 263 262 263 264
211 213 213 213 212 211 210 207 206 204 203 202 201 199 197 197 196 195 194 192 192 191 192 195 199 203 207 213 219 225 230 235 241 247 252 257 259 261 263 265 267 269 270 271 273 275 277 279 280 281 280 277 274 272 270 269 269 269 269 269 269 269 269 268 266 265 264 264 264
212 214 215 214 214 212 210 207 205 203 202 201 199 198 196 195 194 193 192 192 190 190 192 196 200 205 212 219 225 232 238 244 250 255 258 261 262 262 263 265 266 268 269 270 272 275 277 278 280 280 279 276 274 273 272 272 272 271 271 271 271 271 270 270 269 267 266 264 263
214 215 215 215 214 211 208 205 203 202 201 200 199 197 195 192 190 190 191 191 190 190 194 199 205 212 220 228 235 243 250 256 260 263 265 265 265 264 264 265 267 268 270 271 272 274 275 276 277 277 276 275 274 274 274 274 274 274 274 274 274 273 273 272 271 270 268 266 264
213 214 214 214 212 209 206 203 200 200 199 199 199 197 193 189 187 188 190 191 190 192 196 203 211 220 230 239 248 255 261 264 267 268 269 268 268 267 266 266 268 271 272 273 274 274 275 275 276 276 276 275 274 274 275 275 276 276 276 276 276 276 276 275 274 273 273 270 268
210 210 211 211 209 206 203 200 198 197 198 198 198 195 189 185 184 187 190 192 193 196 202 209 220 231 241 250 257 263 267 269 270 270 270 270 270 270 269 268 270 272 275 275 276 276 276 277 278 278 277 276 274 275 275 276 276 277 277 277 278 279 279 278 277 276 276 275 273
200 202 204 204 202 200 198 196 195 196 197 197 196 189 182 179 181 186 191 193 197 204 213 224 237 248 256 262 265 267 269 270 271 271 271 271 271 270 270 269 271 273 275 276 277 277 277 278 278 278 277 276 275 274 274 275 276 277 277 278 279 280 281 281 281 279 278 277 276
Height
778 779 779 780 782 783 785 786 787 788 789 791 792 794 795 796 798 799 801 802 803 804 806 807 808 809 810 811 812 813 814 815 817 818 819 819 820 820 821 821 821 822 822 823 823 823 824 824 824 824 825 825 826 826 826 827 827 827 827 827 827 828 828 828 828 828 828 828 828
777 778 778 779 781 782 784 785 786 787 789 790 791 792 794 795 797 798 799 801 802 803 804 806 807 808 809 809 811 812 813 814 815 816 817 818 819 819 819 820 820 821 821 822 822 822 823 823 824 824 824 824 824 825 825 825 826 826 826 826 827 827 827 827 827 827 827 827 827
775 776 777 779 780 781 783 784 785 786 787 789 790 791 793 794 796 797 799 800 801 802 804 804 805 807 807 809 810 811 812 813 814 815 816 817 817 818 818 819 819 820 820 820 821 821 822 822 822 823 823 823 824 824 824 825 825 825 825 826 826 826 826 826 826 826 826 826 826
774 775 776 777 779 780 781 782 784 785 786 788 789 791 792 794 795 796 797 799 800 801 802 803 804 805 806 807 809 810 811 812 813 814 814 815 816 816 817 818 818 819 819 819 820 820 821 821 821 822 822 823 823 823 824 824 824 824 824 824 825 825 825 825 825 825 825 825 825
773 774 775 776 778 779 780 781 783 784 785 787 788 790 792 793 794 795 796 797 799 799 800 802 803 804 805 806 807 809 809 811 812 813 813 814 814 815 816 816 817 817 818 818 819 819 820 820 820 821 821 822 822 822 823 823 824 824 824 824 824 824 824 824 824 824 824 824 824
772 773 774 775 777 778 779 780 782 783 784 786 787 789 790 791 792 793 794 796 797 798 799 800 801 803 804 805 806 807 808 809 810 811 812 813 813 814 814 815 816 816 817 817 818 818 819 819 819 820 820 821 821 821 822 822 823 823 823 823 823 823 823 823 823 823 823 823 823
771 773 774 774 776 777 778 780 781 783 784 785 786 787 789 789 790 792 793 794 796 797 798 799 800 801 802 803 804 806 807 808 809 809 810 811 812 813 813 814 814 815 815 816 817 817 818 818 819 819 819 819 820 820 821 821 821 822 822 822 822 822 822 822 822 822 822 822 822
771 772 773 774 775 776 777 779 780 781 783 784 785 786 787 788 789 790 792 793 794 795 796 798 799 799 800 802 803 804 805 806 807 808 809 810 810 811 812 813 813 814 814 815 815 816 816 817 817 818 818 819 819 819 819 820 820 820 820 821 821 821 821 820 820 820 820 820 820
770 771 772 773 774 775 776 778 779 780 781 782 783 784 786 787 788 789 791 792 793 794 795 796 797 798 799 800 801 802 804 804 805 806 808 808 809 810 811 811 812 813 813 814 814 815 815 816 816 817 817 817 818 818 819 819 819 819 819 819 819 819 819 819 819 819 819 819 819
769 770 771 772 773 774 775 777 778 779 780 781 782 784 784 785 787 788 789 790 791 792 793 794 795 797 798 799 800 801 802 803 804 805 806 807 808 809 809 810 811 811 812 813 813 814 814 815 815 815 816 816 817 817 817 818 818 818 818 818 818 818 818 818 818 818 818 818 818
767 769 770 771 772 773 774 775 777 778 779 779 781 782 783 784 785 786 788 789 789 791 792 793 794 795 796 798 799 799 800 801 803 804 804 806 806 807 808 809 809 810 811 811 812 813 813 814 814 814 815 815 816 816 816 816 817 817 816 816 817 817 817 817 817 817 817 817 816
766 768 769 769 771 772 773 774 775 776 777 778 779 781 782 783 784 785 786 787 788 789 790 791 793 794 795 796 797 798 799 800 801 802 803 804 805 806 807 807 808 809 809 810 811 811 812 812 813 813 814 814 814 815 815 815 815 815 815 815 815 815 815 815 815 815 815 815 815
765 766 767 768 769 770 771 773 774 775 776 777 778 779 780 781 782 784 784 785 787 788 789 790 791 793 794 794 795 796 798 799 800 801 802 803 804 804 805 806 807 808 808 809 809 810 810 811 811 812 813 813 814 814 814 814 814 814 814 814 814 814 814 814 814 814 814 814 813
764 765 766 767 768 769 770 771 772 773 774 775 777 778 779 780 781 782 783 784 785 786 788 789 790 791 792 793 794 795 796 797 799 799 800 801 802 803 804 805 806 806 807 808 808 809 809 809 810 811 811 812 812 813 813 813 813 813 812 812 812 812 812 812 812 812 812 812 812
763 764 764 765 766 767 769 769 771 772 773 774 775 776 778 779 780 781 782 783 784 785 786 787 789 790 791 792 793 794 795 796 797 798 799 800 801 802 803 804 804 805 806 806 807 807 808 808 809 809 810 810 811 811 811 812 811 811 811 811 811 810 810 810 810 810 810 810 810
762 762 763 764 765 766 767 768 769 771 772 773 774 775 776 777 779 779 781 782 783 784 785 786 788 789 790 791 792 793 794 795 796 797 798 799 799 800 801 802 803 804 804 805 805 806 807 807 808 808 809 809 809 810 810 810 810 810 809 809 809 809 809 809 809 809 809 808 808
761 761 762 763 764 765 766 767 769 769 771 772 773 774 775 776 777 779 780 781 782 783 784 785 787 788 789 790 791 792 793 794 795 796 796 797 798 799 800 801 802 802 803 804 804 805 805 806 806 807 807 808 808 808 809 809 809 808 808 808 808 807 807 807 807 807 807 806 806
760 760 761 762 763 764 765 766 768 769 770 771 772 773 774 775 777 778 779 780 781 782 784 785 786 787 788 789 790 791 792 792 793 794 795 796 797 798 799 799 800 801 802 802 803 804 804 804 805 806 806 806 806 807 807 807 807 807 806 806 806 806 805 805 805 805 805 804 804
759 759 760 761 762 763 764 766 767 768 769 770 771 772 773 774 775 777 778 779 780 781 783 784 785 786 787 788 789 789 790 791 792 793 794 795 796 797 798 798 799 800 800 801 802 802 803 804 804 804 804 805 805 805 805 805 805 805 805 804 804 804 804 803 803 803 803 802 802
758 759 759 760 761 763 764 765 766 767 768 769 770 771 772 773 774 775 777 778 779 780 782 783 784 785 786 787 787 788 789 790 791 792 793 794 794 795 796 797 798 799 799 800 801 801 802 802 803 803 803 803 804 804 804 804 803 803 803 803 802 802 802 801 801 801 800 800 800
757 758 759 759 760 762 763 764 765 766 767 768 769 770 771 772 773 774 776 777 778 779 781 782 783 784 784 785 786 787 788 789 790 791 792 793 794 794 795 796 797 797 798 799 799 800 800 801 801 802 802 802 802 802 802 802 802 801 801 801 800 800 800 799 799 799 798 798 797
756 757 758 758 759 760 762 763 764 765 766 767 768 769 770 771 772 774 775 776 777 779 780 781 782 782 783 784 785 786 787 788 789 790 791 792 793 793 794 795 795 796 797 798 798 799 799 799 800 800 800 801 801 801 800 800 800 800 799 799 799 798 798 798 797 797 796 795 795
755 756 757 758 759 760 761 762 763 764 765 766 767 768 769 770 772 773 774 775 776 778 779 780 781 782 782 783 784 785 786 787 788 789 790 791 791 792 793 794 794 795 796 796 797 798 798 798 799 799 799 799 799 799 799 799 798 798 798 797 797 797 796 796 795 795 794 794 793
755 755 756 757 758 759 760 761 762 763 764 764 766 767 768 769 771 772 773 774 775 777 778 779 780 781 782 783 784 784 785 786 787 788 789 790 790 791 792 793 793 794 794 795 796 796 797 797 797 798 798 798 798 798 797 797 796 796 796 795 795 794 794 794 793 793 792 792 791
754 755 756 757 758 759 759 760 761 762 763 764 765 766 767 769 770 771 772 774 775 776 777 778 779 780 781 782 783 784 784 785 786 787 788 789 789 790 791 792 792 793 794 794 795 795 795 796 796 796 796 796 796 795 795 794 794 794 794 794 793 793 792 791 791 790 790 789 789
754 754 755 756 757 758 759 759 760 761 762 763 764 765 767 768 769 770 771 773 774 775 776 777 778 779 780 781 782 783 783 784 785 786 787 788 789 789 790 790 791 792 792 793 794 794 794 794 795 795 794 794 794 794 793 792 792 792 792 791 791 790 790 789 789 788 788 787 787
753 754 754 755 756 757 758 759 760 761 762 763 764 764 766 767 768 769 771 772 773 774 776 777 777 778 779 780 781 781 782 783 784 785 786 787 787 788 789 789 790 790 791 792 792 793 793 793 793 793 793 793 792 792 791 791 790 790 789 789 789 788 788 787 786 786 785 785 784
753 753 754 755 756 757 758 759 759 760 761 762 763 764 765 766 767 769 770 771 772 774 774 775 776 777 778 779 779 780 781 782 783 784 785 786 786 787 788 788 789 789 789 790 791 791 792 792 792 792 791 791 791 790 789 789 789 789 788 788 787 786 786 785 784 784 783 783 782
752 753 754 754 755 756 758 759 759 760 761 762 763 764 765 766 767 768 769 770 771 772 773 774 775 776 777 778 779 779 780 781 782 783 784 785 785 786 786 787 787 788 788 789 789 790 790 790 790 790 789 789 789 789 788 788 787 787 787 786 785 784 784 783 782 782 781 780 780
752 753 754 754 755 756 757 758 759 760 761 762 763 764 764 765 766 767 768 769 770 771 772 773 774 775 776 777 778 779 780 780 781 782 783 784 784 785 785 786 786 786 787 788 788 788 788 788 788 788 788 788 787 787 786 785 785 785 784 784 783 782 782 781 780 780 779 778 778
752 753 753 754 755 756 757 758 759 760 761 761 762 763 764 765 766 767 768 769 769 770 771 772 773 774 775 776 777 778 779 780 780 781 782 783 783 784 784 784 785 785 786 786 787 787 787 786 786 786 786 786 785 785 784 784 783 782 782 781 780 780 779 779 778 777 777 776 776
752 752 753 754 755 755 756 757 758 759 760 761 762 763 764 764 765 766 767 768 769 770 771 772 773 774 774 775 776 777 778 779 780 780 781 782 782 783 783 783 783 784 784 784 785 785 784 784 784 784 784 784 784 783 782 781 781 780 779 778 778 777 777 776 775 775 774 774 773
751 752 753 754 754 755 756 757 758 759 759 760 761 762 763 764 765 766 767 768 769 769 770 771 772 773 774 774 775 776 777 778 779 779 780 781 781 782 782 782 782 782 782 783 783 783 783 783 782 782 782 782 781 781 780 779 779 778 777 776 775 774 774 773 772 772 771 771 771
751 752 752 753 754 755 755 756 757 758 759 760 761 762 763 764 764 765 766 767 768 769 769 770 771 772 773 774 774 775 776 777 778 779 779 780 780 780 780 780 780 780 781 781 781 781 781 781 780 780 780 780 779 779 778 777 776 775 774 773 772 772 771 770 769 769 769 768 768
751 751 752 753 754 754 755 756 757 758 759 759 760 761 762 763 764 765 766 767 767 768 769 770 770 771 772 773 774 775 776 776 777 778 778 779 779 779 779 779 779 779 779 779 779 779 779 779 779 778 778 778 777 776 775 775 774 773 772 771 770 769 768 768 767 766 766 766 765
750 751 752 753 753 754 755 755 756 757 758 759 760 761 762 763 764 764 765 766 767 768 769 769 770 771 772 773 773 774 775 776 776 777 777 778 778 778 778 777 777 777 777 778 777 777 777 777 777 776 776 776 775 774 773 772 771 770 769 768 767 766 766 765 764 764 763 763 763
750 751 752 752 753 754 754 755 756 757 758 759 759 760 762 763 764 764 765 766 766 767 768 769 769 770 771 772 773 774 774 775 775 776 776 776 776 776 776 776 776 776 776 776 776 775 775 775 774 774 774 774 773 772 771 770 769 768 767 766 764 764 763 763 762 761 760 760 759
750 751 751 752 753 753 754 755 756 757 758 759 759 761 762 762 763 764 764 765 766 767 767 768 769 769 770 771 772 773 774 774 774 775 775 775 775 775 775 774 774 774 774 774 774 774 773 773 773 773 772 772 771 770 769 768 767 766 764 763 762 761 761 760 759 759 758 757 757
750 751 751 752 753 753 754 755 756 757 758 759 760 761 762 762 763 763 764 764 765 766 767 767 768 769 770 771 772 772 773 773 773 773 774 774 774 774 774 773 772 772 772 772 772 772 771 771 771 770 770 770 769 768 767 766 765 764 762 761 760 759 758 758 758 757 756 755 754
750 751 751 752 753 753 754 755 756 757 758 759 760 761 762 762 763 763 763 764 765 766 766 767 768 769 769 770 771 771 771 772 772 772 772 772 772 772 772 771 770 770 770 770 769 769 769 769 769 768 768 768 767 766 765 764 763 761 760 759 759 757 756 756 755 755 754 753 752
750 751 752 752 753 754 754 755 756 757 758 759 760 761 761 762 762 763 763 764 764 765 766 767 768 768 769 769 770 770 770 770 770 770 770 770 770 770 770 769 769 768 768 768 767 767 767 767 766 766 766 766 765 764 764 762 761 759 758 758 757 756 755 754 753 753 752 751 750